TimeMDT,TemperatureF,Dew PointF,Humidity,Sea Level PressureIn,VisibilityMPH,Wind Direction,Wind SpeedMPH,Gust SpeedMPH,PrecipitationIn,Events,Conditions,WindDirDegrees,DateUTC
12:53 AM,72.0,32.0,23,29.69,10.0,Calm,Calm,-,N/A,,Clear,0,2013-05-14 06:53:00
1:53 AM,66.0,32.0,28,29.69,10.0,Calm,Calm,-,N/A,,Clear,0,2013-05-14 07:53:00
2:53 AM,62.1,33.1,34,29.70,10.0,ESE,4.6,-,N/A,,Clear,110,2013-05-14 08:53:00
3:53 AM,61.0,33.1,35,29.70,10.0,East,6.9,-,N/A,,Clear,100,2013-05-14 09:53:00
4:53 AM,59.0,33.1,38,29.72,10.0,Calm,Calm,-,N/A,,Clear,0,2013-05-14 10:53:00
5:53 AM,55.0,33.1,43,29.74,10.0,Calm,Calm,-,N/A,,Clear,0,2013-05-14 11:53:00
6:53 AM,59.0,37.9,46,29.77,10.0,NW,6.9,-,N/A,,Clear,320,2013-05-14 12:53:00
7:53 AM,62.1,41.0,46,29.79,10.0,North,3.5,-,N/A,,Clear,10,2013-05-14 13:53:00
8:53 AM,64.9,41.0,42,29.80,10.0,Calm,Calm,-,N/A,,Clear,0,2013-05-14 14:53:00
9:53 AM,72.0,41.0,33,29.79,10.0,Calm,Calm,-,N/A,,Clear,0,2013-05-14 15:53:00
10:53 AM,78.1,39.0,25,29.77,10.0,Variable,3.5,-,N/A,,Clear,0,2013-05-14 16:53:00
11:53 AM,79.0,35.1,20,29.75,10.0,NW,6.9,-,N/A,,Clear,310,2013-05-14 17:53:00
12:53 PM,82.0,32.0,16,29.72,10.0,WSW,3.5,-,N/A,,Clear,250,2013-05-14 18:53:00
1:53 PM,84.0,28.0,13,29.70,10.0,Calm,Calm,-,N/A,,Clear,0,2013-05-14 19:53:00
2:53 PM,86.0,28.9,13,29.68,10.0,Variable,3.5,-,N/A,,Clear,0,2013-05-14 20:53:00
3:53 PM,88.0,30.0,12,29.66,10.0,North,12.7,-,N/A,,Clear,350,2013-05-14 21:53:00
4:53 PM,86.0,30.9,14,29.65,10.0,Variable,3.5,-,N/A,,Clear,0,2013-05-14 22:53:00
5:53 PM,84.9,30.9,14,29.65,10.0,North,8.1,-,N/A,,Clear,350,2013-05-14 23:53:00
6:53 PM,84.0,30.9,15,29.64,10.0,NNE,4.6,-,N/A,,Clear,30,2013-05-15 00:53:00
7:53 PM,81.0,36.0,20,29.64,10.0,NNW,12.7,-,N/A,,Clear,340,2013-05-15 01:53:00
8:53 PM,73.0,39.9,30,29.70,10.0,NNW,18.4,-,N/A,,Clear,330,2013-05-15 02:53:00
9:53 PM,71.1,37.0,29,29.71,10.0,NNW,26.5,32.2,N/A,,Clear,330,2013-05-15 03:53:00
10:53 PM,69.1,35.1,29,29.73,10.0,NW,19.6,-,N/A,,Clear,320,2013-05-15 04:53:00
11:53 PM,70.0,35.1,28,29.72,10.0,North,13.8,-,N/A,,Clear,350,2013-05-15 05:53:00